Henderson, NV

9:34 PM PST on December 13, 2017 (GMT -0800)
Henderson

Weather History for KHND - February, 2013

Change the Weather History Date:

Thursday, February 7, 2013

  Actual Average (KLAS) Record (KLAS)
Temperature  
Mean Temperature 52 °F -  
Max Temperature 66 °F 58 °F 78 °F (2015)
Min Temperature 37 °F 37 °F 16 °F (1989)
Degree Days  
Heating Degree Days 14    
Growing Degree Days 2 (Base 50)    
Moisture  
Dew Point 21 °F    
Average Humidity 31    
Maximum Humidity 55    
Minimum Humidity 17    
Precipitation  
Precipitation 0.00 in - - ()
Sea Level Pressure  
Sea Level Pressure 29.98 in    
Wind  
Wind Speed 9 mph (South)    
Max Wind Speed 21 mph    
Max Gust Speed 26 mph    
Visibility 10 miles    
Events      
Averages and records for this station are not official NWS values.
T = Trace of Precipitation, MM = Missing Value Source: NWS Daily Summary

Daily Weather History Graph

Daily Weather History Graph

Search for Another Location

Airport or City:

Trip Planner

Search our weather history database for the weather conditions in past years. The results will help you decide how hot, cold, wet, or windy it might be!

Date:

Astronomy

Feb. 07, 2013 Rise Set
Actual Time 6:35 AM PST 5:14 PM PST
Civil Twilight 6:09 AM PST 5:40 PM PST
Nautical Twilight 5:38 AM PST 6:11 PM PST
Astronomical Twilight 5:08 AM PST 6:41 PM PST
Moon 4:15 AM PST (2/7) 2:46 PM PST (2/7)
Length of Visible Light 11h 31m
Length of Day
10h 38m
Waning Crescent, 8% of the Moon is Illuminated
Feb 7
Waning Crescent
Feb 9
New
Feb 17
First Quarter
Feb 25
Full
Mar 4
Last Quarter

Hourly Weather History & Observations

Time (PST) Temp. Windchill Dew Point Humidity Pressure Visibility Wind Dir Wind Speed Gust Speed Precip Events Conditions
12:56 AM 43.9 °F 38.8 °F 19.0 °F 37% 30.09 in 10.0 mi SSE 9.2 mph - N/A   Clear
1:56 AM 43.0 °F 38.2 °F 19.0 °F 38% 30.09 in 10.0 mi SSE 8.1 mph - N/A   Clear
2:56 AM 41.9 °F 36.9 °F 20.1 °F 42% 30.09 in 10.0 mi South 8.1 mph - N/A   Clear
4:56 AM 39.9 °F 35.8 °F 23.0 °F 51% 30.10 in 10.0 mi South 5.8 mph - N/A   Clear
5:56 AM 38.8 °F 33.8 °F 23.0 °F 53% 30.11 in 10.0 mi SSE 6.9 mph - N/A   Clear
6:56 AM 37.9 °F 33.5 °F 23.0 °F 55% 30.14 in 10.0 mi SSW 5.8 mph - N/A   Clear
7:56 AM 45.9 °F 42.9 °F 24.1 °F 42% 30.14 in 10.0 mi SSE 5.8 mph - N/A   Clear
8:56 AM 52.9 °F - 22.1 °F 30% 30.13 in 10.0 mi North 3.5 mph - N/A   Clear
9:56 AM 54.0 °F - 21.0 °F 28% 30.13 in 10.0 mi Calm Calm - N/A   Clear
10:56 AM 56.8 °F - 22.1 °F 26% 30.09 in 10.0 mi NW 4.6 mph - N/A   Clear
11:56 AM 57.9 °F - 22.1 °F 25% 30.06 in 10.0 mi West 4.6 mph - N/A   Clear
12:56 PM 63.0 °F - 23.0 °F 22% 30.00 in 10.0 mi Variable 3.5 mph - N/A   Clear
1:56 PM 64.9 °F - 24.1 °F 21% 29.96 in 10.0 mi NNE 9.2 mph - N/A   Clear
2:56 PM 66.9 °F - 21.0 °F 17% 29.92 in 10.0 mi SSE 12.7 mph 21.9 mph N/A   Clear
3:56 PM 66.9 °F - 21.0 °F 17% 29.89 in 10.0 mi SSE 17.3 mph 24.2 mph N/A   Clear
4:56 PM 64.9 °F - 20.1 °F 18% 29.87 in 10.0 mi SSE 18.4 mph 25.3 mph N/A   Clear
5:56 PM 61.0 °F - 20.1 °F 21% 29.88 in 10.0 mi SSE 18.4 mph - N/A   Clear
6:56 PM 59.0 °F - 22.1 °F 24% 29.88 in 10.0 mi SSE 20.7 mph 26.5 mph N/A   Clear
7:56 PM 57.9 °F - 20.1 °F 23% 29.85 in 10.0 mi South 17.3 mph - N/A   Clear
8:56 PM 52.9 °F - 19.0 °F 26% 29.84 in 10.0 mi South 8.1 mph - N/A   Clear
9:56 PM 52.9 °F - 20.1 °F 28% 29.83 in 10.0 mi West 4.6 mph - N/A   Clear
10:56 PM 52.9 °F - 22.1 °F 30% 29.79 in 10.0 mi South 15.0 mph - N/A   Clear
11:56 PM 54.0 °F - 22.1 °F 29% 29.76 in 10.0 mi South 15.0 mph - N/A   Clear